Location: Banff
(51.1667°N, 115.5667°W)
Time: 13:16:43
(UTC+00:00)

Vanguard 1 Rocket - Pass Details

Date: 28 November 2020
Orbit: 655 x 4222 km, 34.3° (Epoch: 23 January)

Event Time Altitude Azimuth Distance (km) Brightness Sun altitude
Rises 08:22:40 0° 218° (SW) 8,255 - -58.5°
Reaches altitude 10° 08:29:04 10° 211° (SSW) 7,383 - -58.1°
Maximum altitude 08:50:39 36° 156° (SSE) 5,081 - -56.4°
Exits shadow 08:56:21 32° 132° (SE) 4,963 10.9 -55.8°
Drops below altitude 10° 09:06:58 10° 98° (E) 5,699 11.6 -54.8°
Sets 09:11:01 0° 91° (E) 6,280 12.0 -54.4°
